Terug naar catalogus

STARLINK-33664

ActiefCommunicatieVLEO
NORAD 63415·PAYLOAD·🇺🇸 United States

Gelanceerd Mar 31, 2025 vanaf Cape Canaveral Space Force Station

Loading…

Volgende Passages (komende 24 uur)

TLE

VersSource: CelesTrak SupGP

Epoch: Sep 14, 2026, 22:54 UTC

1 63415C 25065S   26257.95465278 -.00010022  00000+0 -36311-3 0  2575
2 63415  43.0023 118.1570 0001330 273.7525 160.0203 15.27571693    13

Volg STARLINK-33664 in realtime met AllMySat

Download on the App Store